Location: Newark
(35.2672°N, 80.7344°W)
Time: 13:38:02
(UTC+00:00)

A-11 Canister half - Pass Details

Date: 01 February 2020
Orbit: 1524 x 1684 km, 47.3° (Epoch: 24 February)

Event Time Altitude Azimuth Distance (km) Brightness Sun altitude
Rises 02:14:02 0° 302° (WNW) 4,713 12.3 -41.8°
Reaches altitude 10° 02:17:09 10° 306° (NW) 3,745 11.5 -42.4°
Enters shadow 02:23:34 45° 331° (NNW) 2,053 9.7 -43.7°
